Погода в Горячеве

Россия / Ивановская область     56°32′43″N   41°33′58″E
темп.,
°C
ветер,
м/с
пор.,
м/с
влажн.,
%
обл.,
%
осадки,
мм/ч
давл.,
гПа
погр.,
м
29 января, сб
сб2900:00−9ююв41194100 0.3 1009393
03:00−9ююв41094100 0.6 1008389
06:00−9юв3995100 0.4 1007379
09:00−8юв3795100 1.0 1007318
12:00−7ююв3591100 0.2 1007354
15:00−6ююв239397 0.3 1006318
18:00−10юв229875 0.1 100635
21:00−11ююв229874 0.1 100631
30 января, вс
вс3000:00−15ю2210090 0.1 100510
03:00−13ю129996 0.1 100429
06:00−12ю239888 0.1 100252
09:00−12ююв249999 0.1 100164
12:00−3ююв4892100 0.1 1000396
15:00−2ююв599297 0.1 999603
18:00−3ююв51091100 0.1 999594
21:00−6ююв51192100 0.1 999394
31 января, пн
пн3100:00−8юв41093100 0.0 1000327
03:00−7юв51194100 0.2 999415
06:00−7юв41194100 0.3 999423
09:00−6юв41195100 0.7 999426
12:00−4юв51094100 0.4 998485
15:00−2юв5892100 0.5 997583
18:00−2вюв41096100 0.1 997530
21:00−1вюв51296100 0.4 996619
1 февраля, вт
вт100:00−1юв51297100 0.6 994739
03:00−1юв41197100 1.0 993649
06:00−1ю61194100 0.8 992735
09:00−3ю61294100 1.3 993696
12:00−3ююз61292100 0.4 994704
15:00−3юз61291100 0.7 996754
18:00−4ююз51295100 0.3 998711
21:00−5юз61294100 0.7 999687
2 февраля, ср
ср200:00−6юз6129298 0.3 1001520
03:00−8юз51193100 0.4 1004390
06:00−10ююз4995100 0.0 1005249
09:00−9ю4993100 0.1 1006380
12:00−7ю4892100 0.0 1006454
15:00−6ю3692100 0.1 1006479
18:00−8юв2397100 0.0 100685
21:00−7ссз0097100 0.6 100532